Appleton, MN

4:28 PM CDT on July 20, 2017 (GMT -0500)
Appleton Municipal

Weather History for KAQP - May, 2011

Change the Weather History Date:

Monday, May 23, 2011

  Actual Average Record
Temperature  
Mean Temperature 64 °F -  
Max Temperature 71 °F 67 °F 87 °F (2006)
Min Temperature 57 °F 45 °F 39 °F (2001)
Degree Days  
Heating Degree Days 1    
Growing Degree Days 14 (Base 50)    
Moisture  
Dew Point 57 °F    
Average Humidity 84    
Maximum Humidity 100    
Minimum Humidity 60    
Precipitation  
Precipitation 0.01 in - - ()
Sea Level Pressure  
Sea Level Pressure 29.62 in    
Wind  
Wind Speed 12 mph (NW)    
Max Wind Speed 20 mph    
Max Gust Speed 24 mph    
Visibility 9 miles    
Events      
Averages and records for this station are not official NWS values.
T = Trace of Precipitation, MM = Missing Value Source: NWS Daily Summary

Daily Weather History Graph

Daily Weather History Graph

Search for Another Location

Airport or City:

Trip Planner

Search our weather history database for the weather conditions in past years. The results will help you decide how hot, cold, wet, or windy it might be!

Date:

Astronomy

May. 23, 2011 Rise Set
Actual Time 5:46 AM CDT 8:55 PM CDT
Civil Twilight 5:10 AM CDT 9:31 PM CDT
Nautical Twilight 4:25 AM CDT 10:17 PM CDT
Astronomical Twilight 3:29 AM CDT 11:13 PM CDT
Moon 1:17 AM CDT (5/23) 12:00 PM CDT (5/23)
Length of Visible Light 16h 20m
Length of Day
15h 09m
Waning Gibbous, 60% of the Moon is Illuminated
May 23
Waning Gibbous
May 24
Last Quarter
Jun 1
New
Jun 8
First Quarter
Jun 15
Full

Hourly Weather History & Observations

Time (CDT) Temp. Dew Point Humidity Pressure Visibility Wind Dir Wind Speed Gust Speed Precip Events Conditions
12:14 AM 57.2 °F 55.4 °F 94% 29.47 in 10.0 mi WNW 9.2 mph - N/A   Clear
12:34 AM 57.2 °F 55.4 °F 94% 29.48 in 10.0 mi WNW 10.4 mph - N/A   Clear
12:54 AM 57.2 °F 55.4 °F 94% 29.49 in 10.0 mi West 8.1 mph - N/A   Scattered Clouds
1:14 AM 57.2 °F 55.4 °F 94% 29.49 in 10.0 mi West 9.2 mph - N/A   Overcast
1:34 AM 57.2 °F 55.4 °F 94% 29.48 in 10.0 mi WNW 11.5 mph - N/A   Mostly Cloudy
1:55 AM 57.2 °F 55.4 °F 94% 29.49 in 10.0 mi WNW 11.5 mph - N/A   Scattered Clouds
2:15 AM 59.0 °F 57.2 °F 94% 29.49 in 10.0 mi WNW 11.5 mph - N/A   Overcast
2:34 AM 59.0 °F 57.2 °F 94% 29.49 in 10.0 mi WNW 11.5 mph - N/A   Overcast
2:54 AM 59.0 °F 57.2 °F 94% 29.49 in 10.0 mi NW 11.5 mph - N/A   Overcast
3:15 AM 59.0 °F 57.2 °F 94% 29.50 in 10.0 mi NW 11.5 mph - N/A   Overcast
3:35 AM 59.0 °F 57.2 °F 94% 29.50 in 10.0 mi NW 11.5 mph - N/A   Overcast
3:54 AM 59.0 °F 57.2 °F 94% 29.51 in 10.0 mi WNW 10.4 mph - N/A   Overcast
4:15 AM 57.2 °F 57.2 °F 100% 29.52 in 10.0 mi WNW 11.5 mph - N/A   Scattered Clouds
4:34 AM 57.2 °F 57.2 °F 100% 29.53 in 10.0 mi WNW 10.4 mph - N/A   Clear
4:54 AM 57.2 °F 57.2 °F 100% 29.54 in 10.0 mi WNW 11.5 mph - N/A   Scattered Clouds
5:14 AM 57.2 °F 57.2 °F 100% 29.54 in 7.0 mi NW 11.5 mph 17.3 mph N/A   Scattered Clouds
5:34 AM 57.2 °F 57.2 °F 100% 29.55 in 7.0 mi NW 13.8 mph 19.6 mph N/A   Scattered Clouds
5:55 AM 57.2 °F 57.2 °F 100% 29.55 in 7.0 mi NW 11.5 mph 21.9 mph 0.01 in   Mostly Cloudy
6:15 AM 57.2 °F 57.2 °F 100% 29.56 in 5.0 mi WNW 10.4 mph - N/A   Scattered Clouds
6:34 AM 57.2 °F 57.2 °F 100% 29.57 in 5.0 mi WNW 12.7 mph - N/A   Mostly Cloudy
6:54 AM 59.0 °F 57.2 °F 94% 29.59 in 5.0 mi NW 12.7 mph 19.6 mph N/A   Overcast
7:14 AM 59.0 °F 57.2 °F 94% 29.59 in 7.0 mi NW 12.7 mph 17.3 mph N/A   Overcast
7:34 AM 59.0 °F 57.2 °F 94% 29.60 in 7.0 mi NW 13.8 mph - N/A   Overcast
7:54 AM 59.0 °F 57.2 °F 94% 29.61 in 7.0 mi NNW 11.5 mph - N/A   Overcast
8:15 AM 59.0 °F 57.2 °F 94% 29.62 in 7.0 mi NW 15.0 mph - N/A   Overcast
8:34 AM 59.0 °F 57.2 °F 94% 29.63 in 7.0 mi NW 12.7 mph 17.3 mph N/A   Overcast
8:54 AM 60.8 °F 57.2 °F 88% 29.63 in 7.0 mi NNW 12.7 mph 16.1 mph N/A   Overcast
9:14 AM 60.8 °F 57.2 °F 88% 29.64 in 7.0 mi NW 15.0 mph - N/A   Overcast
9:34 AM 60.8 °F 57.2 °F 88% 29.64 in 7.0 mi NNW 12.7 mph 18.4 mph N/A   Overcast
9:54 AM 60.8 °F 57.2 °F 88% 29.65 in 10.0 mi NW 11.5 mph - N/A   Overcast
10:15 AM 60.8 °F 57.2 °F 88% 29.66 in 10.0 mi NNW 11.5 mph 20.7 mph N/A   Overcast
10:34 AM 60.8 °F 57.2 °F 88% 29.67 in 10.0 mi NNW 13.8 mph - N/A   Overcast
10:55 AM 60.8 °F 57.2 °F 88% 29.67 in 10.0 mi NW 13.8 mph - N/A   Overcast
11:14 AM 62.6 °F 59.0 °F 88% 29.67 in 10.0 mi NW 13.8 mph 18.4 mph N/A   Overcast
11:35 AM 64.4 °F 59.0 °F 83% 29.67 in 10.0 mi NNW 15.0 mph - N/A   Overcast
11:55 AM 64.4 °F 59.0 °F 83% 29.68 in 10.0 mi NNW 15.0 mph - N/A   Mostly Cloudy
12:15 PM 66.2 °F 59.0 °F 78% 29.68 in 10.0 mi NNW 16.1 mph - N/A   Mostly Cloudy
12:34 PM 66.2 °F 57.2 °F 73% 29.68 in 10.0 mi North 16.1 mph 21.9 mph N/A   Mostly Cloudy
12:54 PM 66.2 °F 59.0 °F 78% 29.69 in 10.0 mi NNW 15.0 mph - N/A   Overcast
1:15 PM 68.0 °F 57.2 °F 68% 29.69 in 10.0 mi NNW 19.6 mph - N/A   Mostly Cloudy
1:34 PM 66.2 °F 57.2 °F 73% 29.69 in 10.0 mi NNW 16.1 mph - N/A   Mostly Cloudy
1:54 PM 68.0 °F 57.2 °F 68% 29.69 in 10.0 mi NNW 16.1 mph 21.9 mph N/A   Mostly Cloudy
2:14 PM 69.8 °F 59.0 °F 68% 29.70 in 10.0 mi NNW 16.1 mph - N/A   Mostly Cloudy
2:34 PM 69.8 °F 57.2 °F 64% 29.70 in 10.0 mi North 13.8 mph 23.0 mph N/A   Scattered Clouds
2:54 PM 71.6 °F 57.2 °F 60% 29.70 in 10.0 mi NNW 17.3 mph 24.2 mph N/A   Scattered Clouds
3:15 PM 69.8 °F 57.2 °F 64% 29.70 in 10.0 mi NNW 18.4 mph 23.0 mph N/A   Scattered Clouds
3:35 PM 69.8 °F 57.2 °F 64% 29.72 in 10.0 mi NNW 19.6 mph 24.2 mph N/A   Scattered Clouds
3:54 PM 69.8 °F 55.4 °F 60% 29.72 in 10.0 mi North 19.6 mph 23.0 mph N/A   Scattered Clouds
4:14 PM 69.8 °F 55.4 °F 60% 29.73 in 10.0 mi North 18.4 mph - N/A   Scattered Clouds
4:34 PM 69.8 °F 55.4 °F 60% 29.73 in 10.0 mi NNW 17.3 mph 21.9 mph N/A   Scattered Clouds
4:55 PM 69.8 °F 57.2 °F 64% 29.74 in 10.0 mi NW 16.1 mph 20.7 mph N/A   Scattered Clouds
5:15 PM 68.0 °F 57.2 °F 68% 29.73 in 10.0 mi NNW 17.3 mph - N/A   Scattered Clouds
5:35 PM 66.2 °F 55.4 °F 68% 29.74 in 10.0 mi NNW 16.1 mph 21.9 mph N/A   Mostly Cloudy
5:54 PM 66.2 °F 55.4 °F 68% 29.74 in 10.0 mi NNW 15.0 mph - N/A   Overcast
6:14 PM 66.2 °F 55.4 °F 68% 29.74 in 10.0 mi North 17.3 mph - N/A   Overcast
6:34 PM 64.4 °F 55.4 °F 73% 29.74 in 10.0 mi NNW 13.8 mph - N/A   Mostly Cloudy
6:55 PM 64.4 °F 55.4 °F 73% 29.74 in 10.0 mi NW 13.8 mph - N/A   Overcast
7:15 PM 64.4 °F 55.4 °F 73% 29.75 in 10.0 mi NW 13.8 mph - N/A   Scattered Clouds
7:35 PM 64.4 °F 55.4 °F 73% 29.75 in 10.0 mi NNW 12.7 mph - N/A   Clear
7:54 PM 64.4 °F 55.4 °F 73% 29.75 in 10.0 mi NNW 15.0 mph - N/A   Scattered Clouds
8:15 PM 62.6 °F 55.4 °F 77% 29.76 in 10.0 mi NNW 10.4 mph 17.3 mph N/A   Scattered Clouds
8:34 PM 60.8 °F 55.4 °F 82% 29.76 in 10.0 mi NNW 8.1 mph - N/A   Clear
8:55 PM 60.8 °F 55.4 °F 82% 29.76 in 10.0 mi NW 8.1 mph - N/A   Clear
9:15 PM 60.8 °F 55.4 °F 82% 29.78 in 10.0 mi NNW 6.9 mph - N/A   Clear
9:35 PM 59.0 °F 55.4 °F 88% 29.78 in 10.0 mi NW 6.9 mph - N/A   Clear
9:54 PM 59.0 °F 55.4 °F 88% 29.78 in 10.0 mi NNW 5.8 mph - N/A   Clear
10:14 PM 57.2 °F 55.4 °F 94% 29.78 in 10.0 mi NNW 5.8 mph - N/A   Clear
10:35 PM 57.2 °F 55.4 °F 94% 29.78 in 10.0 mi NW 4.6 mph - N/A   Clear
10:55 PM 59.0 °F 55.4 °F 88% 29.80 in 10.0 mi NNW 9.2 mph - N/A   Clear
11:14 PM 59.0 °F 55.4 °F 88% 29.79 in 7.0 mi North 13.8 mph - N/A   Scattered Clouds
11:35 PM 57.2 °F 55.4 °F 94% 29.80 in 7.0 mi North 12.7 mph - N/A   Scattered Clouds
11:54 PM 57.2 °F 53.6 °F 88% 29.81 in 7.0 mi North 13.8 mph - N/A   Scattered Clouds